User: anonymous   Login
Location: NJAA Observatory
(40.6819°N, 74.8979°W)
Time: 04:17:06
(UTC-04:00)
Language:

Meteor 1-28 Rocket - Orbit

View from above orbital plane
View from above orbital plane
View from above satellite
View from above satellite

Ground track
Ground track

The orbit data is extracted from the following two-line orbital elements,

1 10114U 77057B   16122.86947631  .00000899  00000-0  49735-4 0  9997
2 10114  97.2060 319.9810 0013105 322.3637  37.6678 15.16202246121213
Epoch (UTC): 01 May 2016 20:52:02
Eccentricity: 0.0013105
inclination: 97.2060°
perigee height: 508 km
apogee height: 526 km
right ascension of ascending node: 319.9810°
argument of perigee: 322.3637°
revolutions per day: 15.16202246
mean anomaly at epoch: 37.6678°
orbit number at epoch: 12121

The dashed part of the orbit path shows where the satellite is in the earth's shadow,  

DLR